T 2017 Aug. 15.23138 TT MPCW q 2.4831716 (2000.0) P Q Peri. 293.01130 -0.41793409 -0.90092513 Node 173.03114 +0.17176506 +0.04799166 e 1.0 Incl. 105.53484 -0.89209185 +0.43131278 From 51 observations 2018 Mar. 20-Apr. 6.
m1 = 12.5 + 5 logΔ + 10.0 log r